PP5FMM-13 Weather Reports


time (UTC)temp
F
wind
direction
speed
knots
gust
knots
rain 1hr
in
rain 24hr
in
rain mn
in
humidity
%
barometer
mb
20260507201536 85 0.0 0.0 0.00 0.00 0.00 90 1007.7
20260507201035 85 0.0 0.0 0.00 0.00 0.00 90 1007.6
20260507200536 85 0.0 0.0 0.00 0.00 0.00 89 1007.7
20260507200036 85 0.0 0.0 0.00 0.00 0.00 89 1007.7
20260507195535 85 0.0 0.0 0.00 0.00 0.00 89 1007.6
20260507195036 85 0.0 0.0 0.00 0.00 0.00 88 1007.6
20260507194536 85 0.0 0.0 0.00 0.00 0.00 88 1007.5
20260507194035 85 0.0 0.0 0.00 0.00 0.00 89 1007.4
20260507193536 85 0.0 0.0 0.00 0.00 0.00 89 1007.5
20260507193035 86 0.0 0.0 0.00 0.00 0.00 89 1007.5
20260507192537 85 0.0 0.0 0.00 0.00 0.00 89 1007.5
20260507192036 86 0.0 0.0 0.00 0.00 0.00 88 1007.6
20260507191536 86 0.0 0.0 0.00 0.00 0.00 87 1007.7
20260507191036 86 0.0 0.0 0.00 0.00 0.00 86 1007.6
20260507190536 86 0.0 0.0 0.00 0.00 0.00 86 1007.7
20260507190036 86 0.0 0.0 0.00 0.00 0.00 86 1007.7
20260507185536 86 0.0 0.0 0.00 0.00 0.00 86 1007.7
20260507185035 86 0.0 0.0 0.00 0.00 0.00 87 1007.7
20260507184536 86 0.0 0.0 0.00 0.00 0.00 87 1007.6
20260507184036 86 0.0 0.0 0.00 0.00 0.00 88 1007.6
20260507183536 85 0.0 0.0 0.00 0.00 0.00 88 1007.7
20260507183036 86 0.0 0.0 0.00 0.00 0.00 88 1007.6
20260507182536 86 0.0 0.0 0.00 0.00 0.00 91 1007.8
20260507182035 86 0.0 0.0 0.00 0.00 0.00 93 1007.8
20260507181536 86 0.0 0.0 0.00 0.00 0.00 88 1007.9
20260507181036 86 0.0 0.0 0.00 0.00 0.00 84 1007.9
20260507180536 87 0.0 0.0 0.00 0.00 0.00 84 1007.9
20260507180036 86 0.0 0.0 0.00 0.00 0.00 84 1007.9
20260507175536 87 0.0 0.0 0.00 0.00 0.00 83 1008.0
20260507175036 87 0.0 0.0 0.00 0.00 0.00 83 1008.1
20260507174536 87 0.0 0.0 0.00 0.00 0.00 82 1008.1
20260507174036 87 0.0 0.0 0.00 0.00 0.00 83 1008.0
20260507173535 87 0.0 0.0 0.00 0.00 0.00 83 1008.0
20260507173036 86 0.0 0.0 0.00 0.00 0.00 82 1008.0
20260507172536 87 0.0 0.0 0.00 0.00 0.00 82 1008.2
20260507172036 87 0.0 0.0 0.00 0.00 0.00 82 1008.3
20260507171536 87 0.0 0.0 0.00 0.00 0.00 82 1008.3
20260507171036 86 0.0 0.0 0.00 0.00 0.00 83 1008.4
20260507170536 86 0.0 0.0 0.00 0.00 0.00 83 1008.5
20260507170036 86 0.0 0.0 0.00 0.00 0.00 84 1008.5
20260507165536 85 0.0 0.0 0.00 0.00 0.00 84 1008.7
20260507165035 85 0.0 0.0 0.00 0.00 0.00 85 1008.7
20260507164536 85 0.0 0.0 0.00 0.00 0.00 86 1008.7
20260507164035 85 0.0 0.0 0.00 0.00 0.00 86 1008.8
20260507163536 85 0.0 0.0 0.00 0.00 0.00 86 1008.9
20260507163036 84 0.0 0.0 0.00 0.00 0.00 88 1009.0
20260507162535 84 0.0 0.0 0.00 0.00 0.00 89 1009.1
20260507162035 84 0.0 0.0 0.00 0.00 0.00 89 1009.3
20260507161535 84 0.0 0.0 0.00 0.00 0.00 89 1009.5
20260507161036 83 0.0 0.0 0.00 0.00 0.00 90 1009.6
20260507160536 83 0.0 0.0 0.00 0.00 0.00 89 1009.7
20260507160036 83 0.0 0.0 0.00 0.00 0.00 89 1010.0
20260507155536 83 0.0 0.0 0.00 0.00 0.00 89 1010.1
20260507155036 83 0.0 0.0 0.00 0.00 0.00 88 1010.1
20260507154535 84 0.0 0.0 0.00 0.00 0.00 86 1010.3
20260507154035 84 0.0 0.0 0.00 0.00 0.00 89 1010.3
20260507153536 84 0.0 0.0 0.00 0.00 0.00 90 1010.4
20260507153036 84 0.0 0.0 0.00 0.00 0.00 90 1010.6
20260507152536 84 0.0 0.0 0.00 0.00 0.00 90 1010.8
20260507152058 84 0.0 0.0 0.00 0.00 0.00 90 1010.9
20260507151535 84 0.0 0.0 0.00 0.00 0.00 90 1011.0
20260507151035 84 0.0 0.0 0.00 0.00 0.00 90 1010.9
20260507150535 84 0.0 0.0 0.00 0.00 0.00 90 1011.1
20260507150035 84 0.0 0.0 0.00 0.00 0.00 90 1011.2
20260507145535 84 0.0 0.0 0.00 0.00 0.00 91 1011.3
20260507145035 84 0.0 0.0 0.00 0.00 0.00 90 1011.4
20260507144535 84 0.0 0.0 0.00 0.00 0.00 91 1011.6
20260507144035 84 0.0 0.0 0.00 0.00 0.00 91 1011.5
20260507143535 84 0.0 0.0 0.00 0.00 0.00 91 1011.6
20260507143036 84 0.0 0.0 0.00 0.00 0.00 91 1011.7
20260507142535 84 0.0 0.0 0.00 0.00 0.00 92 1011.8
20260507142035 84 0.0 0.0 0.00 0.00 0.00 93 1011.9
20260507141536 84 0.0 0.0 0.00 0.00 0.00 93 1011.9
20260507141035 84 0.0 0.0 0.00 0.00 0.00 91 1011.9
20260507140536 84 0.0 0.0 0.00 0.00 0.00 91 1012.0
20260507140035 84 0.0 0.0 0.00 0.00 0.00 90 1012.1
20260507135536 84 0.0 0.0 0.00 0.00 0.00 90 1012.3
20260507135035 84 0.0 0.0 0.00 0.00 0.00 90 1012.5
20260507134536 84 0.0 0.0 0.00 0.00 0.00 90 1012.5
20260507134036 84 0.0 0.0 0.00 0.00 0.00 89 1012.6
20260507133535 84 0.0 0.0 0.00 0.00 0.00 90 1012.8
20260507133036 84 0.0 0.0 0.00 0.00 0.00 91 1012.9
20260507132535 84 0.0 0.0 0.00 0.00 0.00 91 1012.9
20260507132036 84 0.0 0.0 0.00 0.00 0.00 91 1013.1
20260507131536 84 0.0 0.0 0.00 0.00 0.00 91 1013.1
20260507131036 84 0.0 0.0 0.00 0.00 0.00 91 1013.0
20260507130535 83 0.0 0.0 0.00 0.00 0.00 92 1013.2
20260507130036 83 0.0 0.0 0.00 0.00 0.00 93 1013.2
20260507125535 83 0.0 0.0 0.00 0.00 0.00 92 1013.3
20260507125036 83 0.0 0.0 0.00 0.00 0.00 92 1013.5
20260507124536 83 0.0 0.0 0.00 0.00 0.00 92 1013.6
20260507124036 83 0.0 0.0 0.00 0.00 0.00 92 1013.6
20260507123536 84 0.0 0.0 0.00 0.00 0.00 92 1013.4
20260507123036 84 0.0 0.0 0.00 0.00 0.00 92 1013.5
20260507122535 83 0.0 0.0 0.00 0.00 0.00 92 1013.6
20260507122035 84 0.0 0.0 0.00 0.00 0.00 91 1013.7
20260507121535 84 0.0 0.0 0.00 0.00 0.00 91 1013.8
20260507121036 84 0.0 0.0 0.00 0.00 0.00 90 1013.8
20260507120535 85 0.0 0.0 0.00 0.00 0.00 91 1013.7
20260507120035 84 0.0 0.0 0.00 0.00 0.00 92 1013.8
20260507115535 84 0.0 0.0 0.00 0.00 0.00 92 1013.8
20260507115035 84 0.0 0.0 0.00 0.00 0.00 93 1013.8
20260507114536 84 0.0 0.0 0.00 0.00 0.00 94 1014.0
20260507114035 83 0.0 0.0 0.00 0.00 0.00 94 1013.9
20260507113536 83 0.0 0.0 0.00 0.00 0.00 95 1014.0
20260507113037 82 0.0 0.0 0.00 0.00 0.00 97 1013.9
20260507112535 82 0.0 0.0 0.00 0.00 0.00 97 1014.0
20260507112035 82 0.0 0.0 0.00 0.00 0.00 98 1013.9
20260507111536 82 0.0 0.0 0.00 0.00 0.00 98 1013.9
20260507111036 82 0.0 0.0 0.00 0.00 0.00 99 1013.8
20260507110536 82 0.0 0.0 0.00 0.00 0.00 99 1013.8
20260507110036 82 0.0 0.0 0.00 0.00 0.00 99 1013.8
20260507105536 82 0.0 0.0 0.00 0.00 0.00 10 1013.7
20260507105035 82 0.0 0.0 0.00 0.00 0.00 10 1013.8
20260507104535 82 0.0 0.0 0.00 0.00 0.00 10 1013.7
20260507104036 82 0.0 0.0 0.00 0.00 0.00 10 1013.6
20260507103536 82 0.0 0.0 0.00 0.00 0.00 10 1013.7
20260507103036 82 0.0 0.0 0.00 0.00 0.00 99 1013.7
20260507102535 82 0.0 0.0 0.00 0.00 0.00 10 1013.7
20260507102035 82 0.0 0.0 0.00 0.00 0.00 10 1013.7
20260507101536 82 0.0 0.0 0.00 0.00 0.00 10 1013.6
20260507101035 82 0.0 0.0 0.00 0.00 0.00 10 1013.6
20260507100535 82 0.0 0.0 0.00 0.00 0.00 10 1013.7
20260507100035 82 0.0 0.0 0.00 0.00 0.00 10 1013.8
20260507095536 81 0.0 0.0 0.00 0.00 0.00 10 1013.7
20260507095036 82 0.0 0.0 0.00 0.00 0.00 10 1013.7
20260507094535 82 0.0 0.0 0.00 0.00 0.00 10 1013.7
20260507094035 82 0.0 0.0 0.00 0.00 0.00 10 1013.7
20260507093535 82 0.0 0.0 0.00 0.00 0.00 10 1013.8
20260507093035 82 0.0 0.0 0.00 0.00 0.00 10 1013.8
20260507092535 82 0.0 0.0 0.00 0.00 0.00 10 1013.8
20260507092035 82 0.0 0.0 0.00 0.00 0.00 10 1013.7
20260507091535 82 0.0 0.0 0.00 0.00 0.00 10 1013.5
20260507091035 82 0.0 0.0 0.00 0.00 0.00 10 1013.5
20260507090536 82 0.0 0.0 0.00 0.00 0.00 10 1013.5
20260507090035 82 0.0 0.0 0.00 0.00 0.00 10 1013.6
20260507085535 82 0.0 0.0 0.00 0.00 0.00 99 1013.6
20260507085036 82 0.0 0.0 0.00 0.00 0.00 10 1013.5
20260507084536 82 0.0 0.0 0.00 0.00 0.00 10 1013.6
20260507084035 82 0.0 0.0 0.00 0.00 0.00 10 1013.6
20260507083535 82 0.0 0.0 0.00 0.00 0.00 10 1013.6
20260507083036 82 0.0 0.0 0.00 0.00 0.00 10 1013.5
20260507082535 82 0.0 0.0 0.00 0.00 0.00 10 1013.3
20260507082035 82 0.0 0.0 0.00 0.00 0.00 10 1013.3
20260507081535 82 0.0 0.0 0.00 0.00 0.00 10 1013.3
20260507081035 82 0.0 0.0 0.00 0.00 0.00 10 1013.2
20260507080535 82 0.0 0.0 0.00 0.00 0.00 10 1013.3
20260507080037 82 0.0 0.0 0.00 0.00 0.00 10 1013.3
20260507075536 82 0.0 0.0 0.00 0.00 0.00 10 1013.2
20260507075036 82 0.0 0.0 0.00 0.00 0.00 10 1013.2
20260507074536 82 0.0 0.0 0.00 0.00 0.00 99 1013.3
20260507074035 82 0.0 0.0 0.00 0.00 0.00 99 1013.3
20260507073535 82 0.0 0.0 0.00 0.00 0.00 99 1013.3
20260507073035 82 0.0 0.0 0.00 0.00 0.00 99 1013.4
20260507072535 82 0.0 0.0 0.00 0.00 0.00 99 1013.3
20260507072036 82 0.0 0.0 0.00 0.00 0.00 99 1013.4
20260507071535 82 0.0 0.0 0.00 0.00 0.00 98 1013.4
20260507071035 82 0.0 0.0 0.00 0.00 0.00 99 1013.5
20260507070535 82 0.0 0.0 0.00 0.00 0.00 99 1013.5
20260507070035 82 0.0 0.0 0.00 0.00 0.00 99 1013.5
20260507065535 82 0.0 0.0 0.00 0.00 0.00 99 1013.6
20260507065035 82 0.0 0.0 0.00 0.00 0.00 99 1013.7
20260507064535 82 0.0 0.0 0.00 0.00 0.00 99 1013.7
20260507064035 82 0.0 0.0 0.00 0.00 0.00 99 1013.7
20260507063535 82 0.0 0.0 0.00 0.00 0.00 99 1013.8
20260507063035 82 0.0 0.0 0.00 0.00 0.00 99 1014.0
20260507062535 83 0.0 0.0 0.00 0.00 0.00 99 1013.9
20260507062035 83 0.0 0.0 0.00 0.00 0.00 99 1014.1
20260507061535 82 0.0 0.0 0.00 0.00 0.00 99 1014.2
20260507061035 82 0.0 0.0 0.00 0.00 0.00 10 1014.2
20260507060535 82 0.0 0.0 0.00 0.00 0.00 10 1014.3
20260507060035 83 0.0 0.0 0.00 0.00 0.00 99 1014.3
20260507055536 83 0.0 0.0 0.00 0.00 0.00 99 1014.5
20260507055035 82 0.0 0.0 0.00 0.00 0.00 10 1014.4
20260507054535 82 0.0 0.0 0.00 0.00 0.00 10 1014.6
20260507054035 82 0.0 0.0 0.00 0.00 0.00 10 1014.6
20260507053535 82 0.0 0.0 0.00 0.00 0.00 10 1014.6
20260507053035 82 0.0 0.0 0.00 0.00 0.00 10 1014.6
20260507052535 82 0.0 0.0 0.00 0.00 0.00 10 1014.7
20260507052035 82 0.0 0.0 0.00 0.00 0.00 10 1014.8
20260507051535 82 0.0 0.0 0.00 0.00 0.00 10 1014.8
20260507051035 82 0.0 0.0 0.00 0.00 0.00 10 1014.9
20260507050535 82 0.0 0.0 0.00 0.00 0.00 10 1014.9
20260507050035 82 0.0 0.0 0.00 0.00 0.00 10 1014.9
20260507045535 82 0.0 0.0 0.00 0.00 0.00 10 1014.8
20260507045035 82 0.0 0.0 0.00 0.00 0.00 10 1015.0
20260507044535 82 0.0 0.0 0.00 0.00 0.00 10 1015.0
20260507044036 82 0.0 0.0 0.00 0.00 0.00 10 1015.2
20260507043535 82 0.0 0.0 0.00 0.00 0.00 10 1015.3
20260507043035 82 0.0 0.0 0.00 0.00 0.00 10 1015.2
20260507042535 82 0.0 0.0 0.00 0.00 0.00 10 1015.2
20260507042035 82 0.0 0.0 0.00 0.00 0.00 10 1015.3
20260507041535 82 0.0 0.0 0.00 0.00 0.00 10 1015.3
20260507041035 82 0.0 0.0 0.00 0.00 0.00 10 1015.4
20260507040535 82 0.0 0.0 0.00 0.00 0.00 10 1015.5
20260507040035 82 0.0 0.0 0.00 0.00 0.00 10 1015.4
20260507035535 82 0.0 0.0 0.00 0.00 0.00 10 1015.5
20260507035035 82 0.0 0.0 0.00 0.00 0.00 10 1015.6
20260507034536 82 0.0 0.0 0.00 0.00 0.00 10 1015.6
20260507034035 82 0.0 0.0 0.00 0.00 0.00 10 1015.7
20260507033535 82 0.0 0.0 0.00 0.00 0.00 10 1015.7
20260507033035 82 0.0 0.0 0.00 0.00 0.00 10 1015.8
20260507032535 82 0.0 0.0 0.00 0.00 0.00 10 1015.8
20260507032035 82 0.0 0.0 0.00 0.00 0.00 10 1015.8
20260507031535 82 0.0 0.0 0.00 0.00 0.00 10 1015.9
20260507031035 82 0.0 0.0 0.00 0.00 0.00 10 1016.0
20260507030536 82 0.0 0.0 0.00 0.00 0.00 10 1015.9
20260507030035 82 0.0 0.0 0.00 0.00 0.00 10 1015.9
20260507025535 82 0.0 0.0 0.00 0.00 0.00 10 1015.9
20260507025035 82 0.0 0.0 0.00 0.00 0.00 10 1016.0
20260507024535 82 0.0 0.0 0.00 0.00 0.00 10 1016.1
20260507024035 82 0.0 0.0 0.00 0.00 0.00 10 1016.0
20260507023535 82 0.0 0.0 0.00 0.00 0.00 10 1016.2
20260507023035 82 0.0 0.0 0.00 0.00 0.00 10 1016.3
20260507022535 82 0.0 0.0 0.00 0.00 0.00 10 1016.4
20260507022035 82 0.0 0.0 0.00 0.00 0.00 10 1016.4
20260507021535 82 0.0 0.0 0.00 0.00 0.00 10 1016.4
20260507021035 82 0.0 0.0 0.00 0.00 0.00 10 1016.4
20260507020535 82 0.0 0.0 0.00 0.00 0.00 10 1016.3
20260507020035 82 0.0 0.0 0.00 0.00 0.00 10 1016.3
20260507015535 82 0.0 0.0 0.00 0.00 0.00 10 1016.4
20260507015035 82 0.0 0.0 0.00 0.00 0.00 10 1016.4
20260507014535 82 0.0 0.0 0.00 0.00 0.00 10 1016.4
20260507014035 83 0.0 0.0 0.00 0.00 0.00 10 1016.4
20260507013535 83 0.0 0.0 0.00 0.00 0.00 10 1016.3
20260507013035 82 0.0 0.0 0.00 0.00 0.00 10 1016.4
20260507012535 82 0.0 0.0 0.00 0.00 0.00 10 1016.4
20260507012035 82 0.0 0.0 0.00 0.00 0.00 10 1016.5
20260507011535 82 0.0 0.0 0.00 0.00 0.00 99 1016.5
20260507011035 83 0.0 0.0 0.00 0.00 0.00 98 1016.4
20260507010535 83 0.0 0.0 0.00 0.00 0.00 98 1016.5
20260507010035 83 0.0 0.0 0.00 0.00 0.00 98 1016.4
20260507005535 82 0.0 0.0 0.00 0.00 0.00 99 1016.5
20260507005035 83 0.0 0.0 0.00 0.00 0.00 98 1016.5
20260507004535 83 0.0 0.0 0.00 0.00 0.00 98 1016.5
20260507004035 83 0.0 0.0 0.00 0.00 0.00 99 1016.6
20260507003535 83 0.0 0.0 0.00 0.00 0.00 99 1016.7
20260507003035 82 0.0 0.0 0.00 0.00 0.00 99 1016.7
20260507002535 83 0.0 0.0 0.00 0.00 0.00 98 1016.7
20260507002035 83 0.0 0.0 0.00 0.00 0.00 99 1016.6
20260507001535 83 0.0 0.0 0.00 0.00 0.00 99 1016.6
20260507001035 83 0.0 0.0 0.00 0.00 0.00 99 1016.6
20260507000535 83 0.0 0.0 0.00 0.00 0.00 99 1016.7
20260507000036 83 0.0 0.0 0.00 0.00 0.00 98 1016.7
20260506235535 83 0.0 0.0 0.00 0.00 0.00 10 1016.7
20260506235035 83 0.0 0.0 0.00 0.00 0.00 98 1016.7
20260506234535 83 0.0 0.0 0.00 0.00 0.00 97 1016.7
20260506234035 83 0.0 0.0 0.00 0.00 0.00 98 1016.8
20260506233535 83 0.0 0.0 0.00 0.00 0.00 98 1016.7
20260506233035 83 0.0 0.0 0.00 0.00 0.00 10 1016.8
20260506232535 83 0.0 0.0 0.00 0.00 0.00 10 1016.8
20260506232035 83 0.0 0.0 0.00 0.00 0.00 10 1016.7
20260506231535 83 0.0 0.0 0.00 0.00 0.00 99 1016.7
20260506231035 83 0.0 0.0 0.00 0.00 0.00 99 1016.6
20260506230535 84 0.0 0.0 0.00 0.00 0.00 99 1016.5
20260506230035 83 0.0 0.0 0.00 0.00 0.00 10 1016.6
20260506225535 83 0.0 0.0 0.00 0.00 0.00 99 1016.6
20260506225035 83 0.0 0.0 0.00 0.00 0.00 99 1016.5
20260506224535 83 0.0 0.0 0.00 0.00 0.00 98 1016.6
20260506224035 83 0.0 0.0 0.00 0.00 0.00 98 1016.6
20260506223535 83 0.0 0.0 0.00 0.00 0.00 99 1016.5
20260506223035 83 0.0 0.0 0.00 0.00 0.00 98 1016.6
20260506222535 83 0.0 0.0 0.00 0.00 0.00 97 1016.5
20260506222035 84 0.0 0.0 0.00 0.00 0.00 96 1016.5
20260506221535 84 0.0 0.0 0.00 0.00 0.00 96 1016.4
20260506221035 83 0.0 0.0 0.00 0.00 0.00 97 1016.5
20260506220535 84 0.0 0.0 0.00 0.00 0.00 95 1016.3
20260506220035 84 0.0 0.0 0.00 0.00 0.00 96 1016.4
20260506215535 84 0.0 0.0 0.00 0.00 0.00 97 1016.2
20260506215035 84 0.0 0.0 0.00 0.00 0.00 94 1016.2
20260506214535 84 0.0 0.0 0.00 0.00 0.00 96 1016.2
20260506214035 84 0.0 0.0 0.00 0.00 0.00 95 1016.1
20260506213535 84 0.0 0.0 0.00 0.00 0.00 96 1016.1
20260506213035 84 0.0 0.0 0.00 0.00 0.00 95 1016.1
20260506212535 85 0.0 0.0 0.00 0.00 0.00 94 1016.1
20260506212035 85 0.0 0.0 0.00 0.00 0.00 94 1016.1
20260506211535 85 0.0 0.0 0.00 0.00 0.00 94 1016.1
20260506211035 85 0.0 0.0 0.00 0.00 0.00 94 1016.0
20260506210535 85 0.0 0.0 0.00 0.00 0.00 94 1016.0
20260506210035 85 0.0 0.0 0.00 0.00 0.00 94 1016.0
20260506205535 84 0.0 0.0 0.00 0.00 0.00 95 1015.9
20260506205035 84 0.0 0.0 0.00 0.00 0.00 95 1015.9
20260506204535 85 0.0 0.0 0.00 0.00 0.00 92 1015.9
20260506204035 85 0.0 0.0 0.00 0.00 0.00 94 1015.9
20260506203535 85 0.0 0.0 0.00 0.00 0.00 94 1015.9
20260506203048 85 0.0 0.0 0.00 0.00 0.00 92 1015.8
20260506202535 85 0.0 0.0 0.00 0.00 0.00 91 1015.7
20260506202035 85 0.0 0.0 0.00 0.00 0.00 92 1015.7